Location: Malvern Link
(52.1333°N, 2.3000°W)
Time: 04:06:30
(UTC+00:00)

Envisat - Pass Details

Date: 28 January 2022
Orbit: 764 x 765 km, 98.2° (Epoch: 25 May)

Event Time Altitude Azimuth Distance (km) Brightness Sun altitude
Rises 04:40:52 0° 18° (NNE) 3,245 6.6 -29.7°
Reaches altitude 10° 04:43:17 10° 25° (NNE) 2,314 5.8 -29.4°
Maximum altitude 04:48:11 46° 98° (E) 1,023 3.9 -28.6°
Drops below altitude 10° 04:53:03 10° 172° (S) 2,298 5.5 -27.9°
Sets 04:55:26 0° 178° (S) 3,220 6.2 -27.5°
